FW8525 Weather Reports


Display with metric or nautical units.
time (UTC)temp
F
wind
direction
speed
MPH
gust
MPH
rain 1hr
in
rain 24hr
in
rain mn
in
humidity
%
barometer
mb
20260504081540 48 0 0.0 0.0 0.00 0.00 0.00 80 1017.2
20260504044536 45 0 0.0 0.0 0.00 0.00 0.00 70 1017.1
20260504043049 44 0 0.0 0.0 0.00 0.00 0.00 70 1017.3
20260504041536 44 0 0.0 0.0 0.00 0.00 0.00 69 1017.0
20260504040036 44 0 0.0 0.0 0.00 0.00 0.00 68 1016.8
20260504034539 44 0 0.0 0.0 0.00 0.00 0.00 69 1016.8
20260504033037 43 0 0.0 0.0 0.00 0.00 0.00 69 1016.6
20260504031547 43 0 0.0 0.0 0.00 0.00 0.00 70 1016.6
20260504030050 43 0 0.0 0.0 0.00 0.00 0.00 69 1016.6
20260504024538 43 0 0.0 0.0 0.00 0.00 0.00 69 1016.5
20260504023034 43 0 0.0 0.0 0.00 0.00 0.00 68 1016.6
20260504021540 44 0 0.0 0.0 0.00 0.00 0.00 68 1016.5
20260504020038 44 0 0.0 0.0 0.00 0.00 0.00 67 1016.4
20260504014537 45 0 0.0 0.0 0.00 0.00 0.00 66 1016.3
20260504013036 46 0 0.0 0.0 0.00 0.00 0.00 64 1016.3
20260504011535 47 0 0.0 0.0 0.00 0.00 0.00 61 1016.1
20260504010033 49 0 0.0 0.0 0.00 0.00 0.00 58 1015.9
20260504004543 50 0 0.0 0.0 0.00 0.00 0.00 56 1015.8
20260504003037 51 0 0.0 0.0 0.00 0.00 0.00 54 1015.5
20260504001538 53 0 0.0 0.0 0.00 0.00 0.00 50 1015.3
20260504000037 55 0 0.0 0.0 0.00 0.00 0.00 48 1015.3
20260503234536 56 0 0.0 0.0 0.00 0.00 0.00 44 1015.3
20260503233034 58 0 0.0 0.0 0.00 0.00 0.00 42 1015.3
20260503231534 59 0 0.0 0.0 0.00 0.00 0.00 41 1015.2
20260503230053 59 0 0.0 0.0 0.00 0.00 0.00 40 1015.0
20260503224531 59 0 0.0 0.0 0.00 0.00 0.00 40 1015.0
20260503223036 59 0 0.0 14.0 0.00 0.00 0.00 39 1014.9
20260503221541 59 0 0.0 11.0 0.00 0.00 0.00 40 1015.0
20260503220037 59 0 1.0 19.0 0.00 0.00 0.00 39 1015.0
20260503214547 59 0 0.0 14.0 0.00 0.00 0.00 40 1014.8
20260503213040 59 0 0.0 19.0 0.00 0.00 0.00 38 1014.8
20260503211537 59 0 0.0 12.0 0.00 0.00 0.00 39 1014.8
20260503210035 59 0 0.0 11.0 0.00 0.00 0.00 38 1014.7
20260503204544 59 215 0.0 15.0 0.00 0.00 0.00 40 1014.7
20260503203033 59 0 0.0 16.0 0.00 0.00 0.00 39 1014.7
20260503201537 60 0 0.0 0.0 0.00 0.00 0.00 38 1014.8
20260503200032 59 0 0.0 0.0 0.00 0.00 0.00 44 1014.8
20260503194537 59 0 0.0 0.0 0.00 0.00 0.00 40 1014.9
20260503193034 58 0 0.0 18.0 0.00 0.00 0.00 41 1014.9
20260503191532 58 0 0.0 12.0 0.00 0.00 0.00 41 1015.0
20260503190041 58 0 0.0 0.0 0.00 0.00 0.00 42 1015.2
20260503184532 58 0 0.0 17.0 0.00 0.00 0.00 42 1015.1
20260503183038 57 0 2.0 16.0 0.00 0.00 0.00 46 1015.4
20260503181552 57 0 0.0 16.0 0.00 0.00 0.00 42 1015.5
20260503180044 57 0 5.0 17.0 0.00 0.00 0.00 46 1015.5
20260503174534 56 0 0.0 12.0 0.00 0.00 0.00 47 1015.6
20260503173030 56 0 0.0 14.0 0.00 0.00 0.00 48 1015.5
20260503171532 54 214 0.0 12.0 0.00 0.00 0.00 47 1015.5